Back to catalog

COSMOS 1275 DEB

AlivePO
NORAD 42115·DEBRIS·🇷🇺 Russia

Launched Jun 4, 1981 from Plesetsk Cosmodrome

Loading…

Next Passes (next 24 hours)

TLE

FreshSource: Space-Track

Epoch: Sep 14, 2026, 17:30 UTC

1 42115U 81053QB  26257.72929900  .00002330  00000-0  12601-2 0  9990
2 42115  82.6579 164.6624 0062035  14.6418 345.6535 14.11251750655285

Track COSMOS 1275 DEB in real time with AllMySat

Download on the App Store